CDT,Max TemperatureF,Mean TemperatureF,Min TemperatureF,Max Dew PointF,MeanDew PointF,Min DewpointF,Max Humidity, Mean Humidity, Min Humidity, Max Sea Level PressureIn, Mean Sea Level PressureIn, Min Sea Level PressureIn, Max VisibilityMiles, Mean VisibilityMiles, Min VisibilityMiles, Max Wind SpeedMPH, Mean Wind SpeedMPH, Max Gust SpeedMPH,PrecipitationIn, CloudCover, Events, WindDirDegrees
2013-4-1,79,68,57,65,60,57,100,92,58,30.09,30.02,29.95,10,5,0,9,1,,0.01,6,Fog-Rain,115
2013-4-2,73,64,55,63,60,55,100,88,66,30.04,29.98,29.88,10,6,2,23,3,32,1.05,7,Rain-Thunderstorm,54
2013-4-3,62,56,50,61,54,48,100,92,78,30.10,29.95,29.81,10,9,5,14,8,20,0.10,7,Rain,1
2013-4-4,52,50,48,48,46,42,100,89,74,30.20,30.11,30.04,10,8,2,18,6,24,0.01,8,,332
2013-4-5,71,54,37,52,45,37,100,74,40,30.25,30.18,30.10,10,10,7,9,2,,0.00,1,,324
2013-4-6,75,59,43,57,51,42,97,76,48,30.11,30.03,29.95,10,10,7,20,5,26,0.00,1,,149
2013-4-7,79,68,57,63,59,55,100,80,52,30.00,29.93,29.85,10,9,5,16,6,26,0.01,6,,137
2013-4-8,80,72,64,66,64,62,97,83,60,29.89,29.84,29.77,10,10,8,21,11,29,0.00,7,,149
2013-4-9,82,74,68,70,67,64,94,82,60,29.81,29.77,29.71,10,9,2,26,15,38,0.00,7,Rain,140
2013-4-10,78,62,46,72,58,44,97,89,76,29.89,29.80,29.73,10,9,4,23,15,31,0.16,8,Rain-Thunderstorm,23
2013-4-11,69,54,41,46,42,38,100,78,33,29.98,29.88,29.81,10,10,8,20,9,31,0.33,5,Rain-Thunderstorm,334
2013-4-12,78,58,39,51,43,35,100,66,22,30.02,29.95,29.89,10,10,9,6,1,,0.00,0,,90
2013-4-13,78,61,44,56,50,43,100,72,40,30.00,29.92,29.83,10,10,6,10,3,20,0.01,1,,126
2013-4-14,81,64,48,65,59,47,97,81,54,29.81,29.76,29.66,10,9,4,15,3,18,0.00,4,,160
2013-4-15,86,78,69,70,67,66,91,78,53,29.86,29.80,29.74,10,9,6,15,10,22,0.00,6,,154
2013-4-16,84,76,71,72,70,68,94,84,60,29.95,29.90,29.84,10,8,4,22,10,29,0.00,7,,141
2013-4-17,78,74,71,73,71,70,100,92,78,29.95,29.87,29.77,10,6,2,17,11,28,0.02,8,Rain,138
2013-4-18,75,63,51,69,57,42,100,87,71,30.07,29.84,29.71,10,8,2,22,15,31,0.20,7,Rain,329
2013-4-19,64,52,39,40,33,26,93,54,24,30.25,30.19,30.07,10,10,10,17,11,25,0.00,0,,341
2013-4-20,70,51,32,45,37,31,97,66,28,30.27,30.19,30.09,10,10,10,12,3,22,0.00,0,,144
2013-4-21,75,58,42,55,48,41,100,74,41,30.19,30.13,30.07,10,10,10,8,1,,0.00,3,,55
2013-4-22,78,62,46,59,54,46,100,76,46,30.14,30.05,29.94,10,10,7,15,4,16,0.00,1,,151
2013-4-23,81,66,51,66,58,52,100,85,56,30.01,29.95,29.89,10,6,0,15,3,20,0.00,6,Fog-Rain,144
2013-4-24,69,56,46,51,44,39,90,68,37,30.24,30.16,30.04,10,10,10,21,13,30,0.02,5,Rain,354
2013-4-25,75,62,50,51,45,42,93,56,33,30.33,30.25,30.20,10,10,10,9,3,18,0.00,4,,96
2013-4-26,82,71,60,67,61,46,100,78,52,30.22,30.16,30.08,10,8,2,17,6,23,0.00,7,,136
2013-4-27,82,72,64,72,67,63,100,90,60,30.14,30.04,29.97,10,7,1,12,5,22,0.00,6,Rain-Thunderstorm,169
2013-4-28,82,72,62,63,61,57,100,76,42,30.05,29.97,29.88,10,10,5,12,4,17,0.00,2,Rain,173
2013-4-29,84,68,55,67,60,55,100,88,39,29.97,29.91,29.83,10,4,0,18,1,,0.00,5,Fog-Rain,143
2013-4-30,82,73,64,68,65,61,100,83,47,29.86,29.81,29.73,10,7,0,8,2,,0.00,5,Fog-Rain-Thunderstorm,129